Location: Fort Wayne
(41.1310°N, 85.1290°W)
Time: 16:03:00
(UTC-05:00)

OPAL - Visible Passes

Search period start: 19 February 2017 00:00
Search period end: 01 March 2017 00:00
Orbit: 744 x 795 km, 100.2° (Epoch: 18 February)

Date Brightness Start Highest point End Pass type
(mag) Time Alt. Az. Time Alt. Az. Time Alt. Az.
19 Feb 8.7 04:44:21 10° NNE 04:49:16 40° E 04:52:00 23° SSE visible
19 Feb 8.5 06:23:37 10° N 06:27:54 26° WNW 06:32:08 10° WSW visible
20 Feb 9.9 04:09:54 10° NE 04:13:32 19° E 04:16:25 13° SE visible
20 Feb 7.6 05:47:37 10° N 05:52:42 54° WNW 05:56:43 16° SW visible
21 Feb 7.7 05:12:05 10° NNE 05:17:19 72° ESE 05:21:09 18° S visible
21 Feb 9.1 06:52:29 10° NNW 06:55:34 16° WNW 06:58:36 10° W visible
22 Feb 9.1 04:37:03 10° NE 04:41:44 33° E 04:45:35 14° SSE visible
22 Feb 8.3 06:15:57 10° N 06:20:30 31° WNW 06:25:01 10° SW visible
23 Feb 10.2 04:03:00 10° ENE 04:05:57 15° E 04:08:51 10° SE visible
23 Feb 7.5 05:40:05 10° N 05:45:16 66° WNW 05:50:20 10° SSW visible
24 Feb 8.1 05:04:40 10° NNE 05:09:49 58° ESE 05:14:48 10° S visible
24 Feb 8.9 06:44:37 10° NNW 06:48:13 19° WNW 06:51:46 10° WSW visible
25 Feb 9.5 04:29:49 10° NE 04:34:11 27° E 04:38:27 10° SSE visible
25 Feb 8.0 06:08:19 10° N 06:13:06 38° WNW 06:17:49 10° SW visible
26 Feb 10.4 03:56:28 10° ENE 03:58:20 12° E 04:00:11 10° ESE visible
26 Feb 7.4 05:32:35 10° NNE 05:37:48 81° WNW 05:42:55 10° SSW visible
27 Feb 8.5 04:57:18 10° NNE 05:02:18 46° ESE 05:07:12 10° S visible
27 Feb 8.7 06:36:50 10° NNW 06:40:50 23° WNW 06:44:47 10° WSW visible
28 Feb 9.8 04:22:40 10° NE 04:26:36 21° E 04:30:28 10° SE visible
28 Feb 7.8 06:00:43 10° N 06:05:41 46° WNW 06:10:33 10° SW visible
